Humidity-temperature Sensor

Selected Measurement Type: Relative Humidity

 
Relative Humidity [%]     6 entries per hour
Showing data from 2/27/2022 (00:00:00 Z) to 2/26/2022 (00:01:00 Z)
Previous Next [ Day | 3-Days | 7-Days ]
First Last
Prev [ Day | 3-Days | 7-Days ] Next
First Last

Start Time:     :
End Time:     :     
Time (in GMT) :00 :50 :40 :30 :20 :10
Previous Next [ Day | 3-Days | 7-Days ]
First Last
Prev [ Day | 3-Days | 7-Days ] Next
First Last


123 => good data
MM => data is determined as missing
-- => data not received/configured
Back to Top Back to Top
2/27/2022 00:00 to 23:10 87.09 87.20 86.91 85.67 85.28 85.28
2/26/2022 23:00 to 22:10 85.51 85.55 85.18 85.07 85.20 84.70
2/26/2022 22:00 to 21:10 86.19 85.77 85.88 86.10 86.04 85.65
2/26/2022 21:00 to 20:10 84.87 86.64 86.76 86.95 86.19 85.05
2/26/2022 20:00 to 19:10 84.54 84.74 84.85 85.24 85.80 85.30
2/26/2022 19:00 to 18:10 85.53 85.01 84.85 85.69 84.93 86.08
2/26/2022 18:00 to 17:10 84.58 83.96 86.93 85.61 86.23 84.70
2/26/2022 17:00 to 16:10 85.44 85.22 84.83 85.12 84.58 84.31
2/26/2022 16:00 to 15:10 84.62 86.19 86.78 87.63 87.59 87.80
2/26/2022 15:00 to 14:10 87.18 87.05 88.54 87.82 86.15 85.26
2/26/2022 14:00 to 13:10 86.19 86.17 85.92 85.77 86.81 87.42
2/26/2022 13:00 to 12:10 87.16 86.43 86.48 85.75 86.02 86.10
2/26/2022 12:00 to 11:10 85.94 87.40 86.35 85.92 86.37 87.32
2/26/2022 11:00 to 10:10 87.14 86.31 85.51 85.53 85.84 84.79
2/26/2022 10:00 to 9:10 84.46 84.43 85.18 85.24 85.94 86.04
2/26/2022 09:00 to 8:10 86.02 85.01 86.52 86.52 86.43 86.21
2/26/2022 08:00 to 7:10 86.64 86.15 85.05 84.85 85.22 85.01
2/26/2022 07:00 to 6:10 85.34 85.40 84.76 85.69 85.69 86.72
2/26/2022 06:00 to 5:10 86.43 84.31 85.40 86.08 85.44 86.50
2/26/2022 05:00 to 4:10 85.98 84.66 84.60 85.36 84.29 83.42
2/26/2022 04:00 to 3:10 84.02 84.31 84.79 84.72 84.10 84.08
2/26/2022 03:00 to 2:10 84.41 84.08 83.71 83.61 84.13 84.68
2/26/2022 02:00 to 1:10 84.41 84.54 85.03 85.16 84.91 85.26
2/26/2022 01:00 to 0:10 85.73 85.24 84.68 84.23 84.35 84.25